Location: Unspecified
(41.5516°N, 88.1098°W)
Time: 22:31:13
(UTC-06:00)

Okean 3 - Visible Passes

Search period start: 21 February 2017 00:00
Search period end: 03 March 2017 00:00
Orbit: 579 x 602 km, 82.5° (Epoch: 21 February)

Date Brightness Start Highest point End Pass type
(mag) Time Alt. Az. Time Alt. Az. Time Alt. Az.
21 Feb 7.0 05:27:16 10° ESE 05:29:08 13° E 05:30:59 10° ENE visible
21 Feb 6.5 18:44:25 10° NW 18:47:30 20° W 18:50:35 10° SW visible
22 Feb 6.7 05:34:17 10° SE 05:37:17 19° E 05:40:18 10° NE visible
22 Feb 7.0 18:53:40 10° NW 18:55:40 13° W 18:57:41 10° WSW visible
23 Feb 5.9 05:41:50 10° SSE 05:45:28 28° E 05:49:09 10° NNE visible
24 Feb 5.0 05:49:40 10° SSE 05:53:42 41° E 05:57:46 10° NNE visible
25 Feb 4.1 05:57:44 10° S 06:01:58 64° E 06:06:15 10° NNE visible
27 Feb 7.0 04:40:08 10° ESE 04:41:55 12° E 04:43:40 10° ENE visible
28 Feb 6.5 04:47:06 10° SE 04:50:03 18° E 04:53:02 10° NE visible
01 Mar 5.8 04:54:37 10° SSE 04:58:15 27° E 05:01:53 10° NNE visible
02 Mar 5.0 05:02:27 10° SSE 05:06:28 40° E 05:10:31 10° NNE visible
